Search for airport 
image banner adimage banner ad
image banner ad

DAOO - Oran/Ahmed Benbella

Located in Oran, Algeria

ICAO - DAOO, IATA - ORN

Data provided by Airmate  

General information

Coordinates: N35°37'38" W0°36'41"
Elevation is 298 feet MSL.
 
Rated:
View ratings:
[VIEW]
View others Airports in Oran Province

Operational data

Open for public use
Current time UTC:
Current local time:
Weather
METAR: DAOO 290000Z 06004KT CAVOK 20/13 Q1016
TAF: TAF DAOO 282300Z 2900/2924 04010KT CAVOK BECMG 2912/2914 35012KT
View NOTAMs / SUP AIP / TFR affecting this airport [VIEW]
Communications frequencies: [VIEW]

Runways:

RWY identifierQFULength (ft)Width (ft)SurfaceLDA (ft)
07R67°9843148
25L247°9843148
07L67°11811148
25R247°11811148

Airport contact information

Address: Oran Algeria

Satellite view of DAOO